Probability
0 0 0 0 0 0 0 0 0 0 0 0 0 0 1 0 3 9 13 13 10 7 6 6 8 13 19 23 25 24 21 18 13 10 13 19 20 17 17 19 18 16 14 11
0 0 0 0 0 0 0 0 0 0 1 1 0 1 2 1 2 6 10 10 8 6 6 7 9 14 20 25 26 25 23 20 16 12 12 16 17 16 16 18 18 16 15 14
0 0 0 0 0 0 0 0 0 1 2 1 1 2 4 2 1 3 6 8 8 7 8 10 12 16 21 26 26 25 25 22 18 14 13 13 15 17 18 19 18 17 16 16
0 0 0 0 0 0 0 0 0 1 1 1 1 3 5 4 2 4 6 7 8 9 11 15 16 17 22 25 26 26 26 23 17 15 14 14 16 19 20 20 20 18 17 16
0 0 0 0 0 0 0 0 0 0 0 0 0 2 6 7 6 6 7 8 9 10 14 20 21 20 21 24 26 27 27 24 18 15 15 16 18 19 19 19 20 20 19 19
0 0 0 0 0 0 0 0 0 0 0 0 0 2 5 7 8 6 5 7 10 12 16 23 26 24 23 24 25 26 27 25 21 18 17 17 18 18 18 20 22 21 21 21
0 0 0 0 0 0 0 0 0 0 0 0 0 3 6 7 7 6 5 7 11 13 16 23 28 29 28 27 25 27 30 29 24 22 21 19 19 19 20 23 23 20 19 19
0 0 0 0 0 0 0 0 0 0 0 0 2 5 7 8 8 8 8 9 12 15 19 23 28 33 33 29 26 29 34 33 26 23 23 22 22 22 22 23 21 18 16 16
0 0 0 0 0 0 0 0 0 0 0 0 3 6 8 9 8 8 10 12 14 18 23 27 32 35 34 30 27 31 36 34 27 23 24 24 24 23 23 21 19 17 16 15
0 0 0 0 0 0 0 0 0 1 1 0 3 8 10 10 9 10 14 16 17 21 27 32 36 37 33 29 29 33 36 34 28 26 25 24 23 22 21 20 17 16 16 17
0 0 1 1 0 0 0 0 0 1 2 1 3 9 12 11 11 15 20 21 22 24 28 33 38 38 35 30 30 34 36 34 29 26 26 25 24 21 20 20 18 16 14 14
1 1 2 1 0 0 0 0 0 1 2 1 4 10 13 13 14 20 25 27 28 28 30 35 39 40 37 34 34 37 37 36 32 29 29 28 26 22 20 18 16 13 11 11
2 2 2 1 0 0 0 0 0 0 1 1 5 11 14 16 20 25 30 32 33 34 35 41 46 44 39 39 42 42 39 37 36 36 35 33 29 24 20 16 12 10 10 10
3 2 1 0 0 0 0 0 0 0 0 1 6 11 15 21 27 30 33 35 35 37 41 48 53 50 45 47 49 45 40 39 42 43 41 37 32 26 22 17 13 11 11 11
2 1 0 0 0 0 0 0 0 1 1 3 7 10 17 25 31 34 35 37 39 41 46 54 59 57 53 54 53 48 43 44 46 45 42 38 33 28 24 21 16 14 14 13
1 1 0 0 0 0 0 0 1 2 3 5 6 10 18 27 33 35 36 40 44 47 53 59 62 60 57 56 56 52 48 47 48 46 41 38 34 29 25 23 20 17 18 18
2 2 1 0 0 0 1 2 3 5 7 8 9 13 22 30 34 36 38 42 47 52 59 64 65 63 60 58 58 55 50 48 47 45 42 39 35 30 27 26 25 25 26 26
4 4 3 1 0 1 2 3 3 6 10 12 14 19 25 32 35 37 41 46 49 54 60 62 63 62 60 59 57 53 48 44 43 43 43 41 36 33 32 32 34 35 35 34
4 6 5 2 1 2 4 4 3 5 10 15 18 22 28 33 35 40 46 49 50 52 54 56 55 54 55 56 53 47 43 40 37 39 42 40 36 35 35 37 39 40 39 37
3 5 4 2 2 4 6 5 4 6 12 19 23 27 33 35 38 45 49 49 51 49 49 50 48 48 50 51 48 43 40 38 36 38 41 38 34 33 34 36 40 41 39 36
2 3 4 4 4 7 9 7 8 13 18 22 27 33 39 43 47 51 50 49 49 48 47 47 47 49 50 49 45 43 42 40 39 40 39 36 33 31 32 34 38 39 38 36
2 4 8 9 10 14 15 12 14 21 25 25 28 33 40 46 52 53 50 46 44 44 43 43 47 50 51 49 46 46 47 46 44 41 38 35 33 32 32 34 35 36 36 35
6 9 14 17 20 21 19 17 20 23 25 25 26 31 37 42 46 47 45 42 39 39 38 39 43 46 47 45 45 48 50 50 46 42 39 36 34 33 34 34 32 31 31 31
9 14 21 26 25 21 17 16 20 23 23 23 25 29 34 36 37 40 41 40 38 36 37 36 37 41 42 40 41 45 47 47 44 40 37 35 33 31 32 32 28 25 25 26
10 16 25 29 25 20 16 15 19 23 24 23 23 25 28 30 32 35 38 38 36 36 38 37 36 39 41 40 40 42 43 42 40 37 31 28 28 28 28 27 23 20 20 20
9 15 24 28 27 22 19 17 19 23 24 23 22 21 22 26 30 32 34 33 33 36 40 39 38 40 43 43 43 44 43 41 38 34 28 23 23 25 25 24 20 16 15 15
Wind_Speed
13 13 12 11 10 7 7 3 3 2 3 3 5 9 11 12 12 13 12 12 12 11 11 11 10 10 10 8 7 5 5 4 2 2 1 1 1 1 1 2 3 3 1 1
13 15 14 12 10 9 9 7 5 3 4 4 4 6 9 11 12 13 13 13 13 13 13 11 11 10 10 8 7 6 5 5 4 3 2 1 2 2 2 1 2 2 2 1
16 14 14 13 12 10 10 8 5 5 5 5 4 4 6 8 10 12 13 12 13 14 14 13 11 10 10 9 8 6 5 5 4 4 3 2 1 1 2 2 2 1 2 2
16 16 13 12 11 11 9 8 7 6 5 6 6 3 5 8 8 11 12 12 12 13 14 13 12 11 11 10 9 7 6 5 4 3 2 3 2 2 2 2 2 2 1 2
15 16 14 13 11 11 10 7 6 7 5 7 5 3 5 6 7 7 9 12 13 13 14 14 13 11 11 10 10 8 7 5 4 3 2 2 1 1 1 2 2 2 2 2
16 14 13 13 12 11 9 8 8 9 7 8 8 5 4 6 8 9 10 11 12 13 13 13 12 11 10 9 9 9 7 5 4 3 3 2 1 0 0 1 2 2 2 2
17 15 13 12 13 11 11 9 7 8 7 6 6 4 3 7 10 11 12 12 13 13 13 13 12 11 10 9 9 9 8 6 5 4 3 2 2 2 2 2 1 1 1 2
16 15 16 14 14 11 12 13 10 8 7 4 4 2 2 4 8 9 8 9 12 14 13 13 13 12 10 10 9 9 9 7 6 4 3 3 2 2 1 1 0 1 0 1
12 13 14 14 12 13 13 12 11 10 10 5 3 3 3 1 3 7 9 10 10 12 12 12 12 12 11 9 7 7 8 7 6 6 4 3 2 1 0 1 0 0 0 1
13 10 11 11 12 14 14 12 8 8 6 8 4 3 2 4 5 5 7 8 8 10 11 12 12 12 11 10 9 8 8 7 6 5 4 4 3 2 1 1 1 1 1 1
13 12 11 11 14 15 15 15 10 8 8 7 4 1 4 5 4 6 7 8 8 9 10 11 10 10 11 11 11 9 8 7 6 5 4 3 3 2 2 1 1 1 1 1
11 11 10 13 13 12 13 12 11 9 8 8 4 3 5 5 5 7 8 9 9 8 9 10 11 10 9 10 11 9 9 8 6 5 4 3 3 3 3 2 2 1 1 1
5 8 9 12 12 11 12 13 12 11 8 8 7 2 4 4 5 5 7 8 8 7 8 9 9 9 8 8 8 9 8 8 7 6 5 4 4 3 3 2 2 2 1 1
5 8 11 11 10 9 12 13 12 13 9 7 5 4 5 6 7 6 6 8 8 7 7 6 7 6 6 6 6 7 7 7 7 6 6 5 4 4 3 3 2 2 2 1
7 10 12 13 14 11 11 12 13 13 11 8 6 6 7 8 8 7 7 9 9 8 7 6 5 6 5 5 5 5 5 5 6 6 5 5 4 4 4 3 2 2 2 2
8 9 11 13 14 14 12 12 11 12 10 8 6 3 5 7 8 8 7 8 8 7 7 7 6 5 5 4 4 4 4 4 5 5 5 4 4 4 4 3 3 2 2 1
8 8 10 12 12 15 15 12 10 10 10 8 5 3 6 7 6 7 7 7 6 7 6 5 4 4 4 4 4 4 4 4 4 5 5 5 5 4 3 4 3 3 2 2
7 7 7 11 11 16 9 8 7 5 3 3 2 3 4 7 6 6 7 7 5 6 6 4 3 3 3 4 5 4 5 4 4 5 4 4 5 4 3 3 3 3 2 2
9 7 9 10 12 13 8 6 7 4 2 1 1 2 5 6 6 6 7 7 6 6 5 4 3 3 3 3 4 4 4 4 4 4 4 4 4 4 4 4 3 3 3 2
10 7 9 10 12 10 5 5 5 4 3 1 1 1 3 4 4 4 5 5 6 6 5 4 3 3 3 2 3 3 4 4 3 3 3 4 3 3 4 4 4 3 3 3
11 11 12 12 11 6 4 5 5 5 0 2 2 3 4 3 3 7 5 5 6 6 5 4 4 4 3 3 3 2 2 2 2 2 2 3 3 3 4 4 3 3 3 3
9 9 9 10 11 4 5 4 2 3 5 3 3 4 6 6 6 7 6 5 5 5 5 4 4 3 3 3 2 2 2 1 1 1 2 2 2 3 3 2 2 3 3 4
5 4 3 2 1 4 6 5 4 4 3 3 3 5 6 5 4 5 5 5 4 4 3 3 3 3 3 3 2 2 1 1 1 1 1 2 2 2 2 3 3 3 3 3
2 1 1 2 3 3 3 4 4 5 3 2 3 3 5 4 4 3 3 3 3 2 2 2 3 2 2 2 2 2 2 2 2 2 2 2 2 2 2 2 3 3 3 3
3 3 1 1 2 1 2 3 4 3 3 2 2 2 3 3 3 3 3 2 2 1 1 1 2 2 2 2 2 2 2 2 1 2 2 2 3 3 2 2 2 2 2 2
4 3 2 1 1 1 1 3 3 3 3 3 2 2 1 2 2 3 3 2 1 0 0 1 1 1 1 1 2 2 2 3 3 3 3 3 3 3 3 3 2 1 1 1
Wind_Direction
218 228 236 239 237 235 247 229 223 184 201 189 160 152 163 172 170 161 163 163 165 164 160 155 158 152 146 144 146 150 152 149 151 141 179 168 154 157 139 143 131 141 154 134
225 230 239 244 246 245 244 242 219 183 210 227 195 167 168 172 175 168 169 169 169 167 162 161 165 161 153 152 153 155 161 161 166 162 183 184 172 177 147 126 135 151 148 169
227 233 234 240 244 248 255 260 247 209 211 233 235 175 170 182 181 170 171 172 173 170 166 166 170 165 159 160 164 163 157 163 169 177 183 182 163 190 145 153 153 164 172 172
234 237 238 238 244 248 250 260 270 256 242 241 230 196 202 186 185 174 170 170 180 171 167 166 170 170 167 166 165 156 157 160 168 184 181 194 178 173 171 159 145 173 197 187
231 234 235 239 242 248 256 268 277 275 271 271 249 216 178 178 180 176 185 179 177 171 168 167 171 170 169 168 163 157 155 161 169 181 180 209 183 178 149 131 149 183 196 202
243 232 233 237 243 250 256 261 264 264 257 255 250 247 165 168 179 177 196 188 174 168 168 165 165 161 163 162 157 153 154 158 166 184 175 190 166 175 193 166 172 199 184 193
236 237 234 234 237 231 242 250 252 247 237 253 269 255 153 155 161 176 189 179 168 167 166 165 163 160 160 159 157 152 151 159 170 177 170 177 185 217 213 201 184 213 187 168
223 225 224 225 234 233 233 242 245 257 255 239 276 290 191 145 147 159 160 156 161 162 162 165 164 161 163 162 159 152 153 162 167 169 175 181 190 213 192 183 209 199 65 121
243 226 216 218 226 238 243 245 250 259 272 267 198 180 153 142 142 137 140 151 162 159 159 160 159 159 159 155 153 154 153 164 169 172 169 161 159 181 153 156 184 53 54 126
258 255 224 211 219 232 249 257 253 255 257 266 245 195 190 195 174 149 139 141 147 149 152 153 157 155 154 159 158 158 161 161 165 169 172 161 160 171 157 106 97 61 43 44
250 255 243 224 219 224 225 239 249 264 266 259 255 227 176 184 174 154 137 141 152 150 147 147 148 154 159 162 161 165 159 159 165 170 157 148 155 152 128 118 95 82 53 52
236 247 248 244 234 232 236 239 241 247 260 269 263 179 176 167 164 149 139 137 137 138 138 142 146 151 159 164 163 162 162 165 168 161 152 153 142 141 142 134 123 113 95 71
246 250 246 246 235 225 235 237 244 253 259 264 264 194 147 117 98 103 114 116 115 123 128 134 139 148 155 158 160 163 162 165 165 157 154 153 151 148 138 127 119 115 119 114
260 248 252 250 248 233 240 242 244 249 252 254 245 172 160 142 124 121 125 123 119 115 111 116 127 134 139 143 147 149 157 161 159 156 158 160 161 152 143 140 140 141 141 143
240 242 249 258 268 257 239 242 242 247 256 253 230 199 174 155 141 139 137 129 123 122 120 117 119 120 121 125 135 141 149 149 151 156 162 158 154 149 150 154 158 156 167 170
230 251 252 251 256 259 253 246 239 242 244 235 229 213 156 133 138 141 136 131 128 128 126 125 125 130 132 133 137 137 140 150 148 152 153 151 154 157 161 163 167 167 173 176
235 240 251 252 252 259 249 245 240 239 245 245 237 197 155 144 140 140 133 126 128 127 119 118 123 128 133 136 133 134 134 141 148 153 157 158 158 165 177 183 175 179 188 188
245 251 252 253 252 251 254 259 249 237 254 287 138 146 136 125 134 123 118 122 124 119 117 115 122 117 132 145 145 145 150 153 162 165 165 164 164 169 177 188 193 194 194 204
235 234 246 248 244 246 250 249 261 248 241 326 285 155 148 143 142 126 124 128 131 122 120 122 126 119 103 124 137 148 159 158 168 174 173 176 177 180 185 198 200 196 199 209
229 217 237 246 249 248 254 278 283 255 224 19 18 77 140 159 178 124 106 113 116 113 112 111 115 101 89 93 119 139 166 165 171 172 175 177 177 195 201 199 198 200 204 213
220 217 227 243 250 254 306 311 286 254 204 53 49 67 83 80 68 100 104 100 101 107 109 108 105 101 95 93 109 137 153 161 158 151 162 177 183 197 207 196 195 198 205 213
226 227 222 240 246 244 352 347 15 60 52 59 69 77 78 81 90 101 105 97 100 108 114 112 102 104 105 113 122 134 144 131 133 160 182 185 184 203 191 186 203 211 220 222
231 251 240 233 175 67 30 39 47 53 64 54 66 83 93 101 111 108 114 117 114 110 107 111 111 111 111 119 133 154 128 122 144 164 197 189 193 200 183 187 198 207 218 225
230 323 156 116 118 91 49 37 29 30 25 67 91 94 106 120 113 100 95 105 114 112 125 123 118 120 118 128 143 139 130 147 175 184 210 203 198 212 193 198 209 217 218 227
324 319 290 120 119 99 39 26 25 29 14 28 86 119 130 131 129 116 97 74 78 107 121 116 120 143 153 160 158 146 140 151 200 208 205 219 224 216 203 216 246 241 238 227
299 327 289 244 49 20 29 25 19 13 2 351 355 30 94 132 126 117 105 89 80 14 141 152 153 159 152 165 173 166 171 182 205 224 225 232 229 213 205 205 223 336 260 206